"startDT [UTC]","vpos","CH4 [ppm]","stdev(CH4) [ppm]","CO2 [ppm]","stdev(CO2) [ppm]","H2O [ppm]","stdev(H2O)","p_LGR [torr]","T_LGR [C]","mt1_LGR [us]","mt2_LGR [us]","T_ECpre [C]","T_EC1 [C]","T_EC2 [C]","p_inlet [hPa]","p_in [hPa]","p_out [hPa]","T_inlet [C]","RH_inlet [%]","dwpt_inlet [C]","T_vent [C]","RH_vent [%]","dwpt_vent [C]","flow_vent [l min-1]","flow_inlet [l min-1]","dwpt_sample [C]","T_room [C]"
2013-06-27 00:00:00,0.0,1.8927,0.0009,397.92,0.27,419.9,29.2,138.04,30.18,24.67,36.43,0.04,-272.76,-272.76,-41,557,-921,23.3,26.6,3.0,23.7,27.0,3.6,5.73,2.30,-20.8,29.7
2013-06-27 00:01:00,0.0,1.8923,0.0010,397.98,0.26,414.4,32.8,138.04,30.19,24.67,36.43,0.04,-272.76,-272.76,-41,557,-922,23.3,26.3,2.9,23.7,26.7,3.4,5.73,2.36,-20.8,29.7
2013-06-27 00:02:00,0.0,1.8917,0.0007,398.05,0.28,428.2,25.8,138.04,30.19,24.67,36.43,0.04,-272.77,-272.76,-42,557,-922,23.3,25.9,2.7,23.7,26.3,3.2,5.73,2.31,-20.8,29.7
2013-06-27 00:03:00,0.0,1.8915,0.0008,397.93,0.28,429.4,31.5,138.04,30.20,24.67,36.43,0.04,-272.76,-272.76,-41,557,-922,23.4,25.8,2.7,23.7,26.2,3.2,5.73,2.36,-20.8,29.7
2013-06-27 00:04:00,0.0,1.8926,0.0009,397.97,0.29,419.6,29.1,138.04,30.20,24.67,36.43,0.04,-272.76,-272.76,-42,557,-921,23.3,26.4,2.9,23.7,26.8,3.5,5.73,2.31,-20.8,29.7
2013-06-27 00:05:00,0.0,1.8922,0.0009,397.91,0.28,421.8,32.3,138.04,30.21,24.67,36.43,0.04,-272.76,-272.76,-41,557,-921,23.3,26.1,2.8,23.7,26.5,3.3,5.73,2.35,-20.8,29.7
2013-06-27 00:06:00,0.0,1.8919,0.0008,397.94,0.28,423.8,30.0,138.04,30.21,24.67,36.43,0.04,-272.76,-272.76,-42,557,-922,23.4,26.2,2.9,23.8,26.6,3.4,5.73,2.32,-20.7,29.7
2013-06-27 00:07:00,0.0,1.8930,0.0009,397.95,0.28,421.3,24.7,138.04,30.22,24.67,36.42,0.04,-272.76,-272.76,-41,558,-922,23.4,26.7,3.1,23.8,27.1,3.7,5.73,2.33,-20.7,29.7
2013-06-27 00:08:00,0.0,1.8931,0.0009,397.92,0.26,419.3,27.6,138.04,30.22,24.67,36.43,0.04,-272.76,-272.76,-41,558,-922,23.4,26.5,3.0,23.8,27.0,3.6,5.73,2.33,-20.8,29.8
2013-06-27 00:09:00,0.0,1.8930,0.0010,398.01,0.25,425.7,32.2,138.04,30.22,24.67,36.43,0.04,-272.76,-272.76,-42,557,-921,23.3,26.4,2.9,23.8,26.8,3.5,5.73,2.33,-20.7,29.7
2013-06-27 00:10:00,0.0,1.8930,0.0010,398.05,0.27,419.4,28.5,138.04,30.23,24.67,36.43,0.04,-272.76,-272.76,-41,557,-922,23.4,26.4,3.0,23.8,26.8,3.5,5.73,2.33,-20.7,29.8
2013-06-27 00:11:00,0.0,1.8932,0.0008,398.01,0.31,424.9,29.1,138.04,30.23,24.67,36.43,0.04,-272.76,-272.76,-42,557,-922,23.4,26.6,3.1,23.8,27.0,3.6,5.73,2.32,-20.7,29.8
2013-06-27 00:12:00,0.0,1.8923,0.0007,397.99,0.27,415.7,36.3,138.04,30.24,24.67,36.43,0.04,-272.76,-272.76,-41,558,-921,23.4,26.6,3.1,23.8,27.0,3.6,5.73,2.35,-20.7,29.7
2013-06-27 00:13:00,0.0,1.8919,0.0011,398.06,0.27,420.2,28.0,138.04,30.24,24.67,36.43,0.04,-272.76,-272.76,-42,558,-922,23.4,26.2,2.9,23.8,26.6,3.4,5.73,2.31,-20.7,29.8
2013-06-27 00:14:00,0.0,1.8920,0.0009,397.99,0.25,419.1,28.3,138.04,30.24,24.67,36.43,0.04,-272.76,-272.76,-41,558,-922,23.4,26.3,3.0,23.8,26.7,3.5,5.73,2.36,-20.7,29.8
2013-06-27 00:15:00,0.0,1.8922,0.0009,397.95,0.28,428.6,28.9,138.04,30.25,24.67,36.43,0.04,-272.76,-272.77,-41,558,-922,23.4,26.5,3.1,23.8,26.9,3.6,5.73,2.30,-20.7,29.8
2013-06-27 00:16:00,0.0,1.8918,0.0011,398.02,0.24,421.9,27.0,138.04,30.26,24.67,36.43,0.04,-272.76,-272.76,-42,558,-922,23.4,26.3,2.9,23.8,26.7,3.5,5.73,2.37,-20.7,29.8
2013-06-27 00:17:00,0.0,1.8914,0.0009,398.07,0.26,424.6,31.1,138.04,30.26,24.67,36.42,0.04,-272.76,-272.76,-41,558,-922,23.4,26.2,2.9,23.8,26.6,3.4,5.73,2.29,-20.7,29.8
2013-06-27 00:18:00,0.0,1.8919,0.0009,398.05,0.30,423.5,24.4,138.04,30.27,24.67,36.42,0.04,-272.76,-272.76,-42,558,-922,23.4,26.6,3.1,23.8,27.0,3.6,5.73,2.38,-20.7,29.8
2013-06-27 00:19:00,0.0,1.8915,0.0009,397.94,0.31,421.3,31.0,138.04,30.27,24.67,36.43,0.04,-272.76,-272.76,-41,558,-922,23.4,26.4,3.0,23.8,26.8,3.5,5.73,2.28,-20.7,29.8
2013-06-27 00:20:00,0.0,1.8916,0.0009,397.95,0.25,422.8,29.8,138.04,30.28,24.67,36.43,0.04,-272.76,-272.76,-42,558,-922,23.4,26.6,3.2,23.8,27.0,3.7,5.73,2.39,-20.7,29.8
2013-06-27 00:21:00,0.0,1.8914,0.0009,398.06,0.29,430.4,29.6,138.04,30.28,24.67,36.42,0.04,-272.76,-272.76,-41,558,-922,23.4,26.4,3.0,23.8,26.8,3.6,5.73,2.28,-20.7,29.9
2013-06-27 00:22:00,0.0,1.8912,0.0009,397.98,0.29,420.8,27.4,138.04,30.29,24.67,36.43,0.04,-272.76,-272.76,-42,558,-922,23.4,26.6,3.1,23.8,27.0,3.7,5.73,2.39,-20.7,29.9
2013-06-27 00:23:00,0.0,1.8905,0.0010,398.07,0.30,423.6,28.8,138.04,30.30,24.67,36.42,0.04,-272.76,-272.76,-42,558,-922,23.4,25.9,2.8,23.8,26.3,3.3,5.73,2.27,-20.7,29.9
2013-06-27 00:24:00,0.0,1.8905,0.0009,398.06,0.25,422.0,29.6,138.04,30.30,24.67,36.43,0.04,-272.76,-272.76,-41,558,-922,23.4,25.8,2.7,23.8,26.2,3.3,5.73,2.39,-20.7,29.9
2013-06-27 00:25:00,0.0,1.8907,0.0009,398.00,0.28,426.1,32.9,138.04,30.30,24.67,36.42,0.04,-272.76,-272.76,-42,558,-922,23.4,26.3,3.0,23.8,26.6,3.5,5.73,2.27,-20.7,29.9
2013-06-27 00:26:00,0.0,1.8905,0.0009,397.93,0.28,419.8,28.1,138.04,30.31,24.67,36.43,0.04,-272.76,-272.77,-41,558,-922,23.4,26.5,3.1,23.8,26.9,3.6,5.73,2.39,-20.7,29.9
2013-06-27 00:27:00,0.0,1.8901,0.0009,397.87,0.26,422.2,28.8,138.04,30.31,24.67,36.43,0.04,-272.76,-272.76,-42,558,-922,23.4,26.3,3.0,23.8,26.7,3.5,5.73,2.27,-20.7,29.9
2013-06-27 00:28:00,0.0,1.8895,0.0008,397.83,0.27,420.9,28.7,138.04,30.32,24.67,36.43,0.04,-272.76,-272.76,-42,558,-922,23.4,26.1,2.9,23.8,26.5,3.4,5.73,2.39,-20.7,29.9
2013-06-27 00:29:00,0.0,1.8896,0.0010,397.85,0.27,420.7,30.0,138.04,30.33,24.66,36.43,0.04,-272.76,-272.76,-42,558,-922,23.4,26.3,3.0,23.8,26.7,3.5,5.73,2.27,-20.7,29.9
2013-06-27 00:30:00,0.0,1.8900,0.0009,397.77,0.32,424.9,28.0,138.04,30.33,24.67,36.43,0.04,-272.76,-272.76,-42,558,-922,23.4,26.2,3.0,23.8,26.7,3.5,5.73,2.39,-20.7,29.9
2013-06-27 00:31:00,0.0,1.8898,0.0008,397.78,0.35,419.7,28.1,138.04,30.34,24.67,36.43,0.04,-272.76,-272.76,-41,558,-922,23.4,26.4,3.0,23.8,26.8,3.6,5.73,2.26,-20.7,29.9
2013-06-27 00:32:00,0.0,1.8894,0.0010,397.77,0.30,424.0,33.3,138.04,30.34,24.67,36.43,0.04,-272.76,-272.76,-42,558,-922,23.5,26.9,3.3,23.8,27.3,3.8,5.73,2.40,-20.7,29.9
2013-06-27 00:33:00,0.0,1.8897,0.0009,397.67,0.29,437.0,31.6,138.04,30.34,24.67,36.43,0.04,-272.76,-272.76,-41,558,-922,23.5,26.6,3.2,23.8,27.0,3.7,5.73,2.27,-20.7,29.9
2013-06-27 00:34:00,0.0,1.8898,0.0009,397.73,0.27,419.9,35.6,138.04,30.35,24.67,36.43,0.04,-272.76,-272.76,-42,558,-922,23.5,26.8,3.3,23.8,27.2,3.8,5.73,2.40,-20.7,29.9
2013-06-27 00:35:00,0.0,1.8897,0.0011,397.70,0.28,423.8,33.2,138.04,30.35,24.67,36.43,0.04,-272.76,-272.77,-41,558,-922,23.5,26.6,3.2,23.8,27.0,3.7,5.73,2.27,-20.7,29.9
2013-06-27 00:36:00,0.0,1.8899,0.0009,397.79,0.29,418.7,29.7,138.04,30.36,24.67,36.42,0.04,-272.76,-272.76,-42,558,-922,23.5,26.5,3.1,23.8,26.9,3.7,5.73,2.40,-20.7,29.9
2013-06-27 00:37:00,0.0,1.8896,0.0009,397.81,0.25,418.1,31.9,138.04,30.36,24.67,36.43,0.04,-272.76,-272.76,-41,558,-922,23.5,26.7,3.2,23.9,27.1,3.8,5.73,2.26,-20.7,29.9
2013-06-27 00:38:00,0.0,1.8901,0.0010,397.66,0.32,419.6,37.4,138.04,30.36,24.67,36.43,0.04,-272.76,-272.76,-42,558,-922,23.5,26.8,3.3,23.9,27.2,3.8,5.73,2.41,-20.6,29.9
2013-06-27 00:39:00,0.0,1.8908,0.0011,397.61,0.26,428.0,32.9,138.04,30.37,24.67,36.43,0.04,-272.76,-272.76,-42,558,-922,23.5,27.0,3.4,23.9,27.5,4.0,5.73,2.26,-20.7,29.9
2013-06-27 00:40:00,0.0,1.8915,0.0010,397.63,0.31,419.0,33.2,138.04,30.38,24.67,36.43,0.04,-272.76,-272.76,-41,558,-922,23.5,27.0,3.4,23.9,27.4,3.9,5.73,2.40,-20.7,29.9
2013-06-27 00:41:00,0.0,1.8917,0.0008,397.56,0.23,412.9,25.1,138.04,30.38,24.67,36.42,0.04,-272.76,-272.76,-42,558,-922,23.5,27.3,3.6,23.9,27.7,4.1,5.73,2.26,-20.7,29.9
2013-06-27 00:42:00,0.0,1.8921,0.0008,397.56,0.28,426.5,23.9,138.04,30.39,24.67,36.42,0.04,-272.76,-272.76,-41,558,-922,23.5,27.5,3.7,23.9,27.9,4.2,5.73,2.40,-20.7,29.9
2013-06-27 00:43:00,0.0,1.8911,0.0008,397.57,0.25,424.1,32.9,138.04,30.39,24.67,36.43,0.04,-272.76,-272.76,-42,558,-922,23.5,27.3,3.6,23.9,27.7,4.1,5.73,2.27,-20.7,29.9
2013-06-27 00:44:00,0.0,1.8912,0.0008,397.41,0.25,425.9,31.8,138.04,30.40,24.67,36.43,0.04,-272.76,-272.76,-41,558,-922,23.5,27.3,3.6,23.9,27.7,4.1,5.73,2.40,-20.7,29.9
2013-06-27 00:45:00,0.0,1.8914,0.0010,397.43,0.25,419.1,23.7,138.04,30.40,24.67,36.43,0.04,-272.76,-272.76,-42,558,-922,23.5,27.3,3.6,23.9,27.7,4.1,5.73,2.27,-20.6,29.9
2013-06-27 00:46:00,0.0,1.8914,0.0008,397.36,0.26,422.3,31.0,138.04,30.41,24.67,36.43,0.04,-272.76,-272.76,-42,558,-922,23.5,27.4,3.6,23.9,27.8,4.2,5.73,2.39,-20.6,29.9
2013-06-27 00:47:00,0.0,1.8916,0.0010,397.39,0.28,421.8,27.7,138.04,30.41,24.67,36.43,0.04,-272.76,-272.76,-41,558,-922,23.5,27.4,3.6,23.9,27.8,4.2,5.73,2.27,-20.6,29.9
2013-06-27 00:48:00,0.0,1.8917,0.0009,397.41,0.30,427.2,31.5,138.04,30.42,24.67,36.42,0.04,-272.76,-272.76,-42,558,-922,23.5,27.5,3.7,23.9,27.9,4.2,5.73,2.39,-20.6,30.0
2013-06-27 00:49:00,0.0,1.8921,0.0008,397.37,0.30,427.5,31.4,138.04,30.42,24.67,36.43,0.04,-272.76,-272.76,-41,558,-922,23.5,27.7,3.8,23.9,28.1,4.3,5.73,2.27,-20.6,29.9
2013-06-27 00:50:00,0.0,1.8913,0.0008,397.45,0.25,426.5,33.2,138.04,30.43,24.67,36.42,0.04,-272.76,-272.76,-42,558,-922,23.6,27.5,3.7,23.9,27.9,4.3,5.73,2.39,-20.6,30.0
2013-06-27 00:51:00,0.0,1.8909,0.0009,397.36,0.31,433.3,28.9,138.04,30.44,24.67,36.42,0.04,-272.76,-272.76,-41,558,-922,23.6,27.3,3.6,24.0,27.7,4.2,5.73,2.27,-20.6,30.0
2013-06-27 00:52:00,0.0,1.8909,0.0009,397.40,0.28,436.7,28.9,138.04,30.44,24.67,36.43,0.04,-272.76,-272.76,-42,558,-922,23.6,27.4,3.7,24.0,27.8,4.2,5.73,2.38,-20.6,30.0
2013-06-27 00:53:00,0.0,1.8907,0.0009,397.37,0.33,427.1,24.8,138.04,30.45,24.67,36.42,0.04,-272.76,-272.76,-42,558,-922,23.6,27.3,3.6,24.0,27.7,4.2,5.73,2.28,-20.6,29.9
2013-06-27 00:54:00,0.0,1.8911,0.0008,397.32,0.26,431.3,31.1,138.04,30.45,24.67,36.43,0.04,-272.76,-272.76,-41,558,-922,23.6,27.3,3.6,24.0,27.7,4.2,5.73,2.38,-20.6,30.0
2013-06-27 00:55:00,0.0,1.8901,0.0009,397.21,0.22,435.3,28.5,138.04,30.45,24.67,36.43,0.04,-272.76,-272.76,-42,558,-922,23.6,27.4,3.7,24.0,27.8,4.2,5.73,2.28,-20.6,30.0
2013-06-27 00:56:00,0.0,1.8899,0.0009,397.23,0.28,426.1,27.4,138.04,30.46,24.67,36.43,0.04,-272.77,-272.76,-41,558,-922,23.6,27.4,3.7,24.0,27.8,4.2,5.73,2.37,-20.6,30.0
2013-06-27 00:57:00,0.0,1.8895,0.0009,397.23,0.31,422.5,30.1,138.04,30.46,24.67,36.43,0.04,-272.76,-272.76,-42,558,-922,23.6,27.3,3.6,24.0,27.7,4.2,5.73,2.29,-20.6,30.0
2013-06-27 00:58:00,0.0,1.8901,0.0007,397.27,0.30,424.3,27.9,138.04,30.47,24.67,36.42,0.04,-272.76,-272.76,-41,558,-922,23.6,27.4,3.7,24.0,27.8,4.3,5.73,2.37,-20.6,30.0
2013-06-27 00:59:00,0.0,1.8893,0.0009,397.23,0.28,432.9,34.3,138.04,30.47,24.67,36.43,0.04,-272.76,-272.76,-42,558,-922,23.6,27.2,3.6,24.0,27.6,4.1,5.73,2.29,-20.6,30.0
2013-06-27 01:00:00,0.0,1.8906,0.0009,397.26,0.25,426.5,32.2,138.04,30.47,24.67,36.43,0.04,-272.76,-272.76,-42,559,-922,23.6,27.3,3.7,24.0,27.7,4.2,5.73,2.37,-20.6,30.0
2013-06-27 01:01:00,0.0,1.8887,0.0013,397.35,0.26,423.0,31.7,138.04,30.48,24.67,36.43,0.04,-272.76,-272.76,-42,559,-922,23.6,27.1,3.6,24.0,27.5,4.1,5.73,2.29,-20.6,30.0
2013-06-27 01:02:00,0.0,1.8904,0.0012,397.22,0.29,421.7,24.1,138.04,30.48,24.67,36.43,0.04,-272.76,-272.77,-42,558,-922,23.6,27.3,3.7,24.0,27.7,4.2,5.73,2.36,-20.6,30.0
2013-06-27 01:03:00,0.0,1.8907,0.0009,397.21,0.24,436.6,30.8,138.04,30.49,24.67,36.43,0.04,-272.76,-272.76,-42,558,-922,23.6,27.3,3.7,24.0,27.7,4.2,5.73,2.29,-20.6,30.0
2013-06-27 01:04:00,0.0,1.8900,0.0010,397.28,0.30,425.9,36.5,138.04,30.49,24.67,36.43,0.04,-272.76,-272.76,-42,558,-922,23.6,27.2,3.6,24.0,27.6,4.2,5.73,2.37,-20.6,30.0
2013-06-27 01:05:00,0.0,1.8887,0.0010,397.24,0.31,424.5,27.9,138.04,30.49,24.67,36.42,0.04,-272.76,-272.76,-42,559,-922,23.6,27.0,3.5,24.0,27.4,4.0,5.73,2.29,-20.5,30.0
2013-06-27 01:06:00,0.0,1.8880,0.0010,397.29,0.27,427.3,32.9,138.04,30.50,24.67,36.43,0.04,-272.76,-272.76,-42,559,-922,23.6,27.0,3.5,24.0,27.4,4.1,5.73,2.36,-20.6,30.0
2013-06-27 01:07:00,0.0,1.8886,0.0009,397.27,0.29,427.5,31.3,138.04,30.50,24.67,36.43,0.04,-272.76,-272.76,-42,559,-922,23.6,27.1,3.6,24.0,27.5,4.1,5.73,2.30,-20.6,30.0
2013-06-27 01:08:00,0.0,1.8885,0.0010,397.28,0.26,433.7,24.2,138.04,30.51,24.67,36.43,0.04,-272.76,-272.76,-42,559,-922,23.6,27.1,3.6,24.0,27.5,4.1,5.73,2.36,-20.5,30.0
2013-06-27 01:09:00,0.0,1.8880,0.0008,397.31,0.32,430.8,30.2,138.04,30.51,24.67,36.42,0.04,-272.76,-272.77,-42,559,-922,23.6,27.1,3.6,24.0,27.5,4.1,5.73,2.29,-20.5,30.0
2013-06-27 01:10:00,0.0,1.8883,0.0011,397.30,0.28,423.3,32.3,138.04,30.52,24.67,36.43,0.04,-272.76,-272.76,-42,559,-922,23.6,27.0,3.6,24.0,27.5,4.1,5.73,2.36,-20.5,30.0
2013-06-27 01:11:00,0.0,1.8879,0.0011,397.29,0.27,429.6,29.6,138.04,30.52,24.67,36.43,0.04,-272.76,-272.76,-42,559,-922,23.7,27.0,3.5,24.0,27.4,4.1,5.73,2.31,-20.5,30.0
2013-06-27 01:12:00,0.0,1.8876,0.0010,397.32,0.24,427.7,30.8,138.04,30.53,24.67,36.43,0.04,-272.76,-272.76,-42,559,-922,23.7,26.9,3.5,24.0,27.3,4.0,5.73,2.34,-20.5,30.0
2013-06-27 01:13:00,0.0,1.8879,0.0009,397.27,0.23,438.4,31.8,138.04,30.53,24.67,36.43,0.04,-272.76,-272.76,-42,559,-922,23.7,27.0,3.6,24.0,27.4,4.1,5.73,2.32,-20.5,30.1
2013-06-27 01:14:00,0.0,1.8878,0.0008,397.29,0.31,434.0,29.5,138.04,30.54,24.67,36.43,0.04,-272.76,-272.76,-42,559,-922,23.7,27.1,3.6,24.0,27.5,4.1,5.73,2.33,-20.5,30.1
2013-06-27 01:15:00,0.0,1.8871,0.0008,397.37,0.34,427.9,29.7,138.04,30.54,24.67,36.42,0.04,-272.76,-272.76,-42,559,-922,23.7,26.9,3.5,24.0,27.3,4.0,5.73,2.33,-20.5,30.1
2013-06-27 01:16:00,0.0,1.8879,0.0010,397.43,0.29,422.0,28.2,138.04,30.55,24.67,36.43,0.04,-272.76,-272.76,-42,559,-922,23.7,27.0,3.6,24.0,27.5,4.1,5.73,2.33,-20.5,30.1
2013-06-27 01:17:00,0.0,1.8874,0.0008,397.46,0.31,431.9,28.5,138.04,30.55,24.67,36.43,0.04,-272.76,-272.76,-42,559,-922,23.7,27.1,3.6,24.1,27.5,4.2,5.73,2.33,-20.5,30.0
2013-06-27 01:18:00,0.0,1.8889,0.0010,397.51,0.30,433.0,30.8,138.04,30.55,24.67,36.42,0.04,-272.76,-272.76,-42,559,-922,23.7,27.2,3.7,24.0,27.7,4.2,5.73,2.32,-20.5,30.0
2013-06-27 01:19:00,0.0,1.8877,0.0010,397.33,0.30,431.3,32.5,138.04,30.56,24.67,36.43,0.04,-272.76,-272.76,-42,559,-922,23.7,27.0,3.6,24.0,27.4,4.1,5.73,2.34,-20.5,30.0
2013-06-27 01:20:00,0.0,1.8880,0.0010,397.34,0.30,429.8,27.6,138.04,30.56,24.67,36.43,0.04,-272.76,-272.76,-42,559,-922,23.7,27.1,3.7,24.1,27.5,4.2,5.73,2.32,-20.5,30.0
2013-06-27 01:21:00,0.0,1.8894,0.0009,397.47,0.28,428.2,34.3,138.04,30.57,24.67,36.42,0.04,-272.76,-272.76,-41,559,-922,23.7,27.2,3.7,24.1,27.6,4.2,5.73,2.34,-20.5,30.0
2013-06-27 01:22:00,0.0,1.8876,0.0014,397.44,0.28,434.5,33.3,138.03,30.57,24.67,36.43,0.04,-272.76,-272.76,-42,559,-922,23.8,27.1,3.7,24.1,27.5,4.2,5.73,2.31,-20.5,30.0
2013-06-27 01:23:00,0.0,1.8868,0.0009,397.62,0.31,441.0,31.4,138.03,30.57,24.68,36.43,0.04,-272.76,-272.76,-42,559,-922,23.8,27.1,3.7,24.1,27.5,4.2,5.73,2.35,-20.5,30.0
2013-06-27 01:24:00,0.0,1.8872,0.0008,397.46,0.28,431.6,26.4,138.03,30.58,24.67,36.43,0.04,-272.76,-272.76,-42,559,-922,23.8,27.0,3.7,24.1,27.5,4.2,5.73,2.31,-20.5,30.0
2013-06-27 01:25:00,0.0,1.8872,0.0009,397.55,0.30,436.8,26.9,138.03,30.58,24.67,36.43,0.04,-272.76,-272.76,-42,559,-922,23.8,27.1,3.7,24.1,27.5,4.2,5.73,2.35,-20.5,30.1
2013-06-27 01:26:00,0.0,1.8869,0.0011,397.42,0.32,439.5,30.3,138.03,30.59,24.67,36.44,0.04,-272.76,-272.76,-42,559,-922,23.8,27.0,3.6,24.1,27.4,4.2,5.73,2.30,-20.5,30.1
2013-06-27 01:27:00,0.0,1.8873,0.0008,397.53,0.29,433.8,33.8,138.04,30.59,24.67,36.43,0.04,-272.76,-272.76,-42,559,-922,23.8,27.0,3.7,24.1,27.5,4.2,5.73,2.36,-20.5,30.1
2013-06-27 01:28:00,0.0,1.8863,0.0010,397.65,0.28,430.7,29.5,138.03,30.59,24.67,36.42,0.04,-272.76,-272.76,-42,559,-922,23.8,26.8,3.6,24.2,27.3,4.1,5.73,2.29,-20.5,30.1
2013-06-27 01:29:00,0.0,1.8879,0.0010,397.79,0.28,427.0,29.1,138.03,30.60,24.67,36.42,0.04,-272.76,-272.76,-42,559,-922,23.8,26.9,3.6,24.1,27.4,4.2,5.73,2.36,-20.5,30.1
2013-06-27 01:30:00,0.0,1.8874,0.0009,397.58,0.28,434.4,30.6,138.04,30.60,24.67,36.43,0.04,-272.76,-272.77,-42,559,-922,23.8,27.0,3.7,24.2,27.4,4.2,5.73,2.30,-20.5,30.1
2013-06-27 01:31:00,0.0,1.8868,0.0010,397.84,0.33,435.7,30.0,138.03,30.61,24.67,36.42,0.04,-272.76,-272.76,-42,559,-922,23.8,26.9,3.6,24.2,27.3,4.2,5.73,2.35,-20.5,30.1
2013-06-27 01:32:00,0.0,1.8870,0.0010,397.74,0.27,431.3,35.1,138.03,30.61,24.67,36.43,0.04,-272.76,-272.76,-42,559,-922,23.8,27.0,3.7,24.2,27.4,4.2,5.73,2.30,-20.5,30.1
2013-06-27 01:33:00,0.0,1.8871,0.0011,397.65,0.31,434.8,37.0,138.03,30.61,24.67,36.43,0.04,-272.76,-272.77,-42,559,-922,23.8,27.1,3.8,24.2,27.5,4.2,5.73,2.35,-20.5,30.1
2013-06-27 01:34:00,0.0,1.8870,0.0008,397.68,0.27,435.3,33.8,138.03,30.62,24.67,36.43,0.04,-272.76,-272.76,-42,559,-922,23.8,27.0,3.7,24.2,27.4,4.2,5.73,2.31,-20.5,30.1
2013-06-27 01:35:00,0.0,1.8871,0.0012,397.84,0.25,437.9,29.4,138.03,30.62,24.67,36.42,0.04,-272.76,-272.76,-42,559,-922,23.8,26.9,3.7,24.2,27.3,4.1,5.73,2.35,-20.5,30.1
2013-06-27 01:36:00,0.0,1.8873,0.0009,397.90,0.26,446.0,29.3,138.03,30.62,24.67,36.42,0.04,-272.76,-272.76,-42,559,-922,23.8,26.9,3.6,24.2,27.2,4.1,5.73,2.30,-20.5,30.1
2013-06-27 01:37:00,0.0,1.8867,0.0011,397.84,0.28,437.1,33.7,138.03,30.63,24.67,36.43,0.04,-272.76,-272.76,-42,559,-922,23.8,26.8,3.6,24.2,27.2,4.1,5.73,2.35,-20.5,30.1
2013-06-27 01:38:00,0.0,1.8869,0.0009,397.92,0.29,430.8,33.0,138.03,30.63,24.67,36.42,0.04,-272.76,-272.76,-42,559,-922,23.8,26.7,3.6,24.2,27.1,4.0,5.73,2.31,-20.5,30.1
2013-06-27 01:39:00,0.0,1.8854,0.0008,397.79,0.31,439.2,28.7,138.04,30.63,24.67,36.43,0.04,-272.76,-272.76,-42,559,-922,23.8,26.6,3.5,24.2,26.9,3.9,5.73,2.35,-20.5,30.1
2013-06-27 01:40:00,0.0,1.8867,0.0011,397.82,0.31,434.0,30.3,138.04,30.64,24.67,36.43,0.04,-272.76,-272.76,-42,559,-922,23.8,26.9,3.6,24.2,27.2,4.1,5.73,2.30,-20.5,30.2
2013-06-27 01:41:00,0.0,1.8864,0.0009,397.95,0.29,438.4,24.8,138.03,30.64,24.67,36.43,0.04,-272.76,-272.76,-42,559,-922,23.8,26.8,3.6,24.2,27.1,4.1,5.73,2.35,-20.5,30.1
2013-06-27 01:42:00,0.0,1.8856,0.0010,397.93,0.27,440.4,26.7,138.03,30.64,24.67,36.42,0.04,-272.76,-272.76,-42,559,-922,23.8,26.6,3.5,24.2,26.9,3.9,5.73,2.30,-20.5,30.2
2013-06-27 01:43:00,0.0,1.8854,0.0011,397.86,0.31,435.2,32.5,138.04,30.65,24.67,36.43,0.04,-272.76,-272.76,-42,559,-922,23.8,26.6,3.5,24.2,26.9,3.9,5.73,2.34,-20.4,30.2
2013-06-27 01:44:00,0.0,1.8856,0.0010,397.86,0.27,433.1,35.4,138.03,30.65,24.67,36.43,0.04,-272.76,-272.76,-42,559,-922,23.8,26.6,3.5,24.2,26.9,3.9,5.73,2.31,-20.5,30.2
2013-06-27 01:45:00,0.0,1.8867,0.0009,398.12,0.29,440.5,27.2,138.03,30.65,24.67,36.42,0.04,-272.76,-272.76,-42,559,-922,23.8,26.9,3.6,24.2,27.2,4.1,5.73,2.34,-20.5,30.1
2013-06-27 01:46:00,0.0,1.8857,0.0009,397.86,0.30,430.3,30.8,138.03,30.66,24.67,36.43,0.04,-272.76,-272.77,-42,559,-922,23.8,26.6,3.5,24.2,26.9,4.0,5.73,2.31,-20.4,30.1
2013-06-27 01:47:00,0.0,1.8862,0.0010,397.91,0.30,436.7,26.1,138.03,30.66,24.67,36.43,0.04,-272.76,-272.76,-42,559,-922,23.8,26.7,3.6,24.2,27.0,4.0,5.73,2.34,-20.4,30.2
2013-06-27 01:48:00,0.0,1.8869,0.0010,397.92,0.31,438.3,25.9,138.03,30.66,24.67,36.43,0.04,-272.76,-272.76,-42,559,-922,23.8,26.8,3.6,24.2,27.1,4.1,5.73,2.31,-20.4,30.2
2013-06-27 01:49:00,0.0,1.8857,0.0011,397.90,0.29,431.1,30.5,138.03,30.67,24.67,36.43,0.04,-272.76,-272.76,-42,559,-922,23.8,26.7,3.5,24.2,26.9,4.0,5.73,2.34,-20.4,30.2
2013-06-27 01:50:00,0.0,1.8852,0.0010,397.84,0.30,436.1,32.5,138.03,30.67,24.67,36.43,0.04,-272.76,-272.76,-42,559,-922,23.8,26.7,3.5,24.2,27.0,4.0,5.73,2.31,-20.4,30.2
2013-06-27 01:51:00,0.0,1.8857,0.0009,397.96,0.31,424.8,35.2,138.03,30.68,24.67,36.43,0.04,-272.76,-272.76,-42,559,-922,23.8,26.8,3.5,24.2,27.0,4.0,5.73,2.34,-20.4,30.2
2013-06-27 01:52:00,0.0,1.8855,0.0009,397.78,0.30,442.2,31.2,138.03,30.68,24.67,36.43,0.04,-272.76,-272.76,-42,559,-922,23.8,26.7,3.5,24.2,26.9,4.0,5.73,2.32,-20.4,30.2
2013-06-27 01:53:00,0.0,1.8856,0.0010,397.79,0.26,439.1,31.3,138.03,30.69,24.67,36.43,0.04,-272.76,-272.76,-42,559,-922,23.8,26.8,3.6,24.2,27.0,4.0,5.73,2.33,-20.4,30.2
2013-06-27 01:54:00,0.0,1.8867,0.0009,397.81,0.29,441.5,32.7,138.03,30.69,24.67,36.43,0.04,-272.76,-272.76,-42,559,-922,23.8,27.0,3.7,24.2,27.2,4.1,5.73,2.31,-20.4,30.2
2013-06-27 01:55:00,0.0,1.8865,0.0011,397.79,0.37,443.3,28.5,138.03,30.70,24.67,36.43,0.04,-272.76,-272.76,-42,559,-922,23.8,27.1,3.7,24.2,27.4,4.2,5.73,2.35,-20.4,30.2
2013-06-27 01:56:00,0.0,1.8875,0.0013,397.78,0.30,440.1,34.2,138.03,30.70,24.67,36.43,0.04,-272.76,-272.76,-42,559,-922,23.8,27.3,3.9,24.2,27.6,4.3,5.73,2.30,-20.4,30.2
2013-06-27 01:57:00,0.0,1.8853,0.0009,397.67,0.27,439.7,28.0,138.03,30.70,24.67,36.44,0.04,-272.76,-272.76,-42,560,-922,23.8,27.1,3.7,24.2,27.3,4.2,5.73,2.35,-20.4,30.2
2013-06-27 01:58:00,0.0,1.8864,0.0012,397.72,0.29,435.1,31.8,138.03,30.71,24.67,36.44,0.04,-272.76,-272.76,-42,559,-922,23.8,27.2,3.8,24.2,27.5,4.3,5.73,2.30,-20.4,30.2
2013-06-27 01:59:00,0.0,1.8857,0.0011,397.76,0.29,433.5,27.3,138.03,30.71,24.67,36.43,0.04,-272.76,-272.76,-42,559,-922,23.8,27.1,3.7,24.2,27.4,4.2,5.73,2.35,-20.4,30.2
2013-06-27 02:00:00,0.0,1.8862,0.0009,397.70,0.29,437.8,32.1,138.03,30.72,24.67,36.44,0.04,-272.76,-272.76,-42,559,-922,23.8,27.5,4.0,24.2,27.8,4.4,5.73,2.29,-20.4,30.2
2013-06-27 02:01:00,0.0,1.8861,0.0008,397.87,0.28,432.5,28.1,138.03,30.72,24.67,36.43,0.04,-272.76,-272.76,-42,559,-922,23.8,27.2,3.8,24.2,27.4,4.2,5.73,2.36,-20.4,30.2
2013-06-27 02:02:00,0.0,1.8861,0.0010,397.70,0.29,433.8,36.2,138.03,30.72,24.67,36.43,0.04,-272.76,-272.76,-42,559,-923,23.8,27.3,3.8,24.2,27.5,4.3,5.73,2.29,-20.4,30.2
2013-06-27 02:03:00,0.0,1.8855,0.0011,397.82,0.29,432.3,24.7,138.03,30.73,24.67,36.43,0.04,-272.76,-272.77,-42,559,-923,23.8,27.0,3.7,24.2,27.3,4.1,5.73,2.37,-20.4,30.2
2013-06-27 02:04:00,0.0,1.8861,0.0011,397.75,0.33,441.7,31.2,138.03,30.73,24.67,36.43,0.04,-272.76,-272.76,-42,559,-922,23.8,27.2,3.8,24.2,27.4,4.2,5.73,2.28,-20.4,30.2
2013-06-27 02:05:00,0.0,1.8859,0.0009,397.80,0.23,440.3,28.6,138.03,30.74,24.67,36.43,0.04,-272.76,-272.76,-42,559,-922,23.8,27.4,3.9,24.2,27.6,4.3,5.73,2.37,-20.4,30.2
2013-06-27 02:06:00,0.0,1.8859,0.0010,397.73,0.27,429.3,31.9,138.03,30.74,24.67,36.43,0.04,-272.76,-272.76,-42,559,-923,23.8,27.3,3.8,24.2,27.5,4.3,5.73,2.28,-20.4,30.2
2013-06-27 02:07:00,0.0,1.8856,0.0008,397.77,0.29,431.0,29.0,138.03,30.74,24.67,36.43,0.04,-272.76,-272.76,-42,559,-922,23.8,27.3,3.9,24.2,27.6,4.3,5.73,2.37,-20.4,30.2
2013-06-27 02:08:00,0.0,1.8858,0.0008,397.86,0.31,432.2,33.3,138.03,30.75,24.67,36.44,0.04,-272.76,-272.76,-42,560,-923,23.8,27.1,3.7,24.2,27.4,4.2,5.73,2.28,-20.4,30.2
2013-06-27 02:09:00,0.0,1.8856,0.0010,397.83,0.33,441.5,26.6,138.03,30.75,24.67,36.43,0.04,-272.76,-272.76,-42,559,-923,23.8,27.1,3.7,24.2,27.3,4.2,5.73,2.37,-20.4,30.2
2013-06-27 02:10:00,0.0,1.8858,0.0010,397.61,0.27,438.2,28.1,138.03,30.75,24.67,36.44,0.04,-272.76,-272.76,-42,560,-922,23.8,27.2,3.8,24.2,27.4,4.2,5.73,2.28,-20.4,30.2
2013-06-27 02:11:00,0.0,1.8860,0.0007,397.67,0.27,441.8,36.1,138.03,30.75,24.67,36.43,0.04,-272.76,-272.76,-42,560,-923,23.8,27.2,3.8,24.2,27.4,4.3,5.73,2.37,-20.4,30.2
2013-06-27 02:12:00,0.0,1.8856,0.0010,397.86,0.24,440.3,35.2,138.03,30.76,24.67,36.44,0.04,-272.76,-272.76,-43,559,-923,23.8,26.7,3.5,24.2,26.9,4.0,5.73,2.27,-20.4,30.2
2013-06-27 02:13:00,0.0,1.8854,0.0011,397.82,0.29,445.4,29.2,138.03,30.76,24.67,36.43,0.04,-272.76,-272.76,-42,560,-922,23.9,26.6,3.5,24.2,26.9,4.0,5.73,2.38,-20.4,30.2
2013-06-27 02:14:00,0.0,1.8856,0.0011,397.74,0.26,437.4,30.5,138.03,30.77,24.67,36.43,0.04,-272.76,-272.76,-42,560,-922,23.8,27.0,3.7,24.3,27.3,4.2,5.73,2.28,-20.4,30.2
2013-06-27 02:15:00,0.0,1.8851,0.0010,397.90,0.32,433.6,29.3,138.03,30.77,24.67,36.43,0.04,-272.76,-272.76,-42,560,-922,23.9,26.5,3.5,24.3,26.8,4.0,5.73,2.37,-20.4,30.2
2013-06-27 02:16:00,0.0,1.8862,0.0012,397.75,0.29,440.9,33.4,138.03,30.77,24.67,36.43,0.04,-272.76,-272.76,-42,560,-922,23.9,26.9,3.7,24.3,27.2,4.1,5.73,2.27,-20.4,30.2
2013-06-27 02:17:00,0.0,1.8866,0.0008,397.71,0.31,438.5,29.1,138.03,30.78,24.67,36.43,0.04,-272.76,-272.76,-42,559,-922,23.9,27.0,3.8,24.3,27.3,4.2,5.73,2.37,-20.4,30.2
2013-06-27 02:18:00,0.0,1.8857,0.0009,397.77,0.28,443.0,32.2,138.03,30.78,24.67,36.43,0.04,-272.76,-272.76,-42,560,-922,23.9,26.8,3.6,24.3,27.1,4.1,5.73,2.27,-20.4,30.3